#timestamp,LO_Frequency,Hit,StdDev 
1506218415.3,286046996.2,N
1506218435.1,286046992.2,Y
1506218455.8,286046996.4,P
1506218475.7,286046996.4,P
1506218495.5,286046993.9,P
1506218515.3,286046993.8,Y
1506218535.2,286046999.5,P
1506218555.0,286046999.1,N
1506218555.9,286046999.1,N
1506218575.7,286047002.5,N
1506218595.6,286046999.8,N
1506218615.4,286047000.8,N
1506218635.2,286046998.0,N
1506218655.1,286046997.4,N
1506218675.9,286046997.4,N
1506218695.7,286046997.5,N
1506218715.5,286046998.1,N
1506218735.4,286047002.8,N
1506218755.2,286047001.3,N
1506218775.0,286046999.7,N
1506218775.9,286046999.7,N
1506218795.8,286047002.4,N
1506218815.6,286047004.3,N
1506218835.4,286047006.4,N
1506218855.3,286047006.3,N
1506218875.1,286047007.5,N
1506218876.0,286047007.5,N
1506218895.8,286047001.4,N
1506218915.7,286047002.9,N
1506218935.5,286047007.6,N
1506218955.3,286047005.9,N
1506218975.2,286047007.0,N
1506218995.9,286047007.8,N
1506219015.7,286047000.0,N
1506219035.5,286047000.3,N
1506219055.4,286047002.9,N
1506219075.2,286047007.7,N
1506219095.0,286047011.1,Y
1506219096.0,286047011.1,P
1506219115.8,286047013.1,N
1506219135.6,286047017.4,P
1506219155.5,286047023.8,Y
1506219175.3,286047020.1,P
1506219195.1,286047020.6,P
1506219215.8,286047024.8,P
1506219235.7,286047026.1,Y
1506219255.5,286047004.5,P
1506219275.3,286047007.4,N
1506219295.2,286047005.1,N
1506219315.0,286047007.1,N
1506219315.9,286047007.1,N
1506219335.7,286047006.1,N
1506219355.6,286047008.1,N
1506219375.4,286047011.5,N
1506219395.2,286047009.8,N
1506219415.1,286047009.6,N
1506219416.0,286047009.6,N
1506219435.8,286047013.7,Y
1506219455.6,286047006.9,P
1506219475.5,286047007.2,P
1506219495.3,286047007.7,P
1506219515.1,286047004.5,Y
1506219535.9,286046998.1,P
1506219555.7,286046999.6,N
1506219575.5,286047002.5,N
1506219595.4,286047001.9,N
1506219615.2,286046999.9,N
1506219635.0,286047000.2,N
1506219635.9,286047000.2,N
1506219655.8,286046998.2,N
1506219675.6,286046998.6,N
1506219695.4,286046998.5,N
1506219715.3,286046997.1,N
1506219735.1,286046999.4,N
1506219736.0,286046999.4,N
1506219755.8,286046997.8,N
1506219775.7,286046998.4,N
1506219795.5,286046998.7,N
1506219815.3,286047000.6,N
1506219835.1,286046999.4,N
1506219855.9,286046998.5,N
1506219875.7,286047002.5,N
1506219895.5,286046999.8,N
1506219915.4,286046996.5,N
1506219935.2,286046997.1,N
1506219955.0,286046997.9,N
1506219955.9,286046997.9,N
1506219975.8,286046997.1,N
1506219995.6,286046995.7,N
1506220015.4,286046993.9,N
1506220035.3,286046995.0,N
1506220055.1,286046993.9,N
1506220056.0,286046993.9,N
1506220075.8,286046994.0,N
1506220095.7,286046993.5,N
1506220115.5,286046989.2,Y
1506220135.3,286046992.7,P
1506220155.2,286046993.7,N
1506220175.9,286046996.1,N
1506220195.7,286046992.9,Y
1506220215.6,286046995.7,P
1506220235.4,286046992.0,P
1506220255.2,286046994.8,P
1506220275.1,286046993.5,Y
1506220276.0,286046993.5,P
1506220295.8,286046997.7,P
1506220315.6,286046999.6,N
1506220335.5,286047000.3,N
1506220355.3,286046998.6,N
1506220375.1,286047001.1,N
1506220395.9,286047000.9,N
1506220415.7,286046999.3,N
1506220435.5,286046996.9,N
1506220455.3,286047000.7,N
1506220475.2,286046999.7,N
1506220495.0,286046997.6,N
1506220495.9,286046997.6,N
1506220515.7,286046998.9,N
1506220535.6,286047002.7,N
1506220555.4,286046998.5,N
1506220575.2,286046999.4,N
1506220595.1,286046997.3,N
1506220596.0,286046997.3,N
1506220615.8,286046993.7,N
1506220635.6,286046995.9,N
1506220655.5,286046995.2,N
1506220675.3,286046995.3,N
1506220695.1,286046997.9,N
1506220715.9,286046993.8,N
1506220735.7,286046993.4,N
1506220755.5,286046996.4,N
1506220775.3,286046993.5,N
1506220795.2,286046992.9,N
1506220815.9,286046992.3,N
1506220835.7,286046992.7,N
1506220855.6,286046994.7,N
1506220875.4,286046995.0,N
1506220895.2,286046997.5,N
1506220915.1,286046997.9,N
1506220916.0,286046997.9,N
1506220935.8,286046993.8,N
1506220955.6,286046994.5,N
1506220975.5,286046993.9,N
1506220995.3,286046996.4,N
1506221015.1,286046997.4,N
1506221035.9,286046996.8,N
1506221055.7,286046995.4,N
1506221075.5,286046994.4,N
1506221095.3,286046993.6,N
1506221115.2,286046992.2,Y
1506221135.0,286046997.0,P
1506221135.9,286046997.0,P
1506221155.8,286047000.7,N
1506221175.6,286046998.1,N
1506221195.4,286046996.9,N
1506221215.2,286046991.9,Y
1506221235.1,286046993.0,P
1506221236.0,286046993.0,P
1506221255.8,286046993.7,N
1506221275.6,286047000.1,N
1506221295.5,286047002.6,N
1506221315.3,286047000.6,N
1506221335.1,286046993.2,N
1506221355.9,286046984.3,Y
1506221375.7,286046992.2,P
1506221395.5,286046995.9,N
1506221415.4,286046998.5,N
1506221435.2,286047005.7,N
1506221455.0,286047011.9,N
1506221455.9,286047011.9,N
1506221475.8,286047012.6,N
1506221495.6,286047014.6,N
1506221515.4,286047017.0,N
1506221535.3,286047017.1,N
1506221555.1,286047018.0,N
1506221556.0,286047018.0,N
1506221575.8,286047019.4,N
1506221595.7,286047021.2,N
1506221615.5,286047020.3,N
1506221635.3,286047023.7,N
1506221655.1,286047025.3,N
1506221675.9,286047025.9,N
1506221695.7,286047023.7,N
1506221715.5,286047024.2,N
1506221735.4,286047022.3,N
1506221755.2,286047023.5,N
1506221775.0,286047026.2,N
1506221775.9,286047026.2,N
1506221795.8,286047022.4,N
1506221815.6,286047025.6,N
1506221835.4,286047027.5,N
1506221855.3,286047030.7,Y
1506221875.1,286047011.3,P
1506221876.0,286047011.3,P
1506221895.8,286047011.0,P
1506221915.7,286047010.2,Y
1506221935.5,286046998.0,P
1506221955.3,286046997.5,N
1506221975.2,286046995.4,N
1506221995.9,286046996.2,N
